| time (UTC) | temp F | wind direction | speed MPH | gust MPH | rain 1hr in | rain 24hr in | rain mn in | humidity % | barometer mb |
| 20260507141554 | 49 | 349 | 2.0 | 6.0 | 0.00 | 0.09 | 0.00 | 56 | 1011.9 |
| 20260507140106 | 49 | 53 | 1.0 | 4.0 | 0.00 | 0.09 | 0.00 | 56 | 1012.0 |
| 20260507134544 | 48 | 341 | 2.0 | 5.0 | 0.00 | 0.15 | 0.00 | 62 | 1012.1 |
| 20260507133042 | 46 | 360 | 6.0 | 12.0 | 0.00 | 0.15 | 0.00 | 66 | 1012.2 |
| 20260507131540 | 46 | 9 | 2.0 | 5.0 | 0.00 | 0.15 | 0.00 | 69 | 1012.1 |
| 20260507130048 | 46 | 298 | 1.0 | 5.0 | 0.00 | 0.15 | 0.00 | 73 | 1012.1 |
| 20260507124540 | 44 | 355 | 1.0 | 4.0 | 0.00 | 0.25 | 0.00 | 78 | 1012.2 |
| 20260507123038 | 43 | 283 | 1.0 | 3.0 | 0.00 | 0.25 | 0.00 | 84 | 1012.3 |
| 20260507121540 | 42 | 307 | 2.0 | 5.0 | 0.00 | 0.25 | 0.00 | 87 | 1012.2 |
| 20260507120033 | 41 | 215 | 1.0 | 3.0 | 0.00 | 0.25 | 0.00 | 90 | 1012.1 |
| 20260507114530 | 40 | 190 | 1.0 | 3.0 | 0.00 | 0.27 | 0.00 | 91 | 1012.0 |
| 20260507113034 | 37 | 190 | 0.0 | 1.0 | 0.00 | 0.27 | 0.00 | 90 | 1012.2 |
| 20260507111529 | 36 | 190 | 1.0 | 3.0 | 0.00 | 0.27 | 0.00 | 90 | 1011.9 |
| 20260507110028 | 36 | 190 | 1.0 | 3.0 | 0.00 | 0.27 | 0.00 | 89 | 1011.9 |
| 20260507104526 | 36 | 190 | 1.0 | 3.0 | 0.00 | 0.28 | 0.00 | 88 | 1011.8 |
| 20260507103024 | 36 | 190 | 0.0 | 2.0 | 0.00 | 0.28 | 0.00 | 88 | 1011.7 |
| 20260507101532 | 36 | 190 | 0.0 | 2.0 | 0.00 | 0.28 | 0.00 | 88 | 1011.6 |
| 20260507100030 | 37 | 190 | 3.0 | 5.0 | 0.00 | 0.28 | 0.00 | 87 | 1011.4 |
| 20260507094522 | 38 | 332 | 1.0 | 3.0 | 0.00 | 0.28 | 0.00 | 86 | 1011.5 |
| 20260507093033 | 38 | 332 | 1.0 | 2.0 | 0.00 | 0.28 | 0.00 | 86 | 1011.4 |
| 20260507091513 | 39 | 332 | 0.0 | 3.0 | 0.00 | 0.28 | 0.00 | 86 | 1011.5 |
| 20260507090012 | 40 | 332 | 1.0 | 3.0 | 0.00 | 0.28 | 0.00 | 84 | 1011.6 |
| 20260507084506 | 41 | 333 | 1.0 | 3.0 | 0.00 | 0.30 | 0.00 | 84 | 1011.6 |
| 20260507083004 | 42 | 332 | 0.0 | 2.0 | 0.00 | 0.30 | 0.00 | 83 | 1011.7 |
| 20260507081501 | 42 | 332 | 0.0 | 2.0 | 0.00 | 0.30 | 0.00 | 83 | 1011.6 |
| 20260507080135 | 42 | 332 | 1.0 | 2.0 | 0.00 | 0.30 | 0.00 | 83 | 1011.5 |
| 20260507074605 | 43 | 332 | 0.0 | 0.0 | 0.00 | 0.30 | 0.00 | 83 | 1011.4 |
| 20260507073111 | 43 | 332 | 0.0 | 2.0 | 0.00 | 0.30 | 0.00 | 83 | 1011.3 |
| 20260507071609 | 43 | 333 | 1.0 | 4.0 | 0.00 | 0.30 | 0.00 | 83 | 1011.6 |
| 20260507070057 | 43 | 360 | 0.0 | 4.0 | 0.00 | 0.30 | 0.00 | 82 | 1011.7 |
| 20260507064558 | 43 | 302 | 1.0 | 5.0 | 0.00 | 0.30 | 0.00 | 82 | 1011.4 |
| 20260507063055 | 44 | 326 | 3.0 | 5.0 | 0.00 | 0.30 | 0.00 | 82 | 1011.4 |
| 20260507061550 | 44 | 25 | 3.0 | 8.0 | 0.00 | 0.30 | 0.00 | 83 | 1011.1 |
| 20260507060047 | 45 | 349 | 3.0 | 10.0 | 0.00 | 0.30 | 0.00 | 86 | 1011.0 |
| 20260507054551 | 45 | 338 | 4.0 | 12.0 | 0.00 | 0.30 | 0.00 | 89 | 1010.9 |
| 20260507053046 | 45 | 338 | 2.0 | 6.0 | 0.00 | 0.30 | 0.00 | 91 | 1010.7 |
| 20260507051540 | 45 | 248 | 0.0 | 1.0 | 0.00 | 0.30 | 0.00 | 91 | 1010.8 |
| 20260507050039 | 45 | 248 | 0.0 | 2.0 | 0.00 | 0.30 | 0.00 | 91 | 1010.6 |
| 20260507044539 | 45 | 248 | 1.0 | 3.0 | 0.00 | 0.30 | 0.00 | 91 | 1010.8 |
| 20260507043040 | 45 | 248 | 1.0 | 2.0 | 0.00 | 0.30 | 0.00 | 90 | 1010.7 |
| 20260507041535 | 44 | 331 | 2.0 | 3.0 | 0.00 | 0.30 | 0.00 | 90 | 1010.5 |
| 20260507040035 | 44 | 331 | 0.0 | 3.0 | 0.00 | 0.30 | 0.00 | 90 | 1010.3 |
| 20260507034532 | 44 | 331 | 1.0 | 3.0 | 0.00 | 0.30 | 0.30 | 90 | 1010.5 |
| 20260507033032 | 45 | 331 | 1.0 | 2.0 | 0.00 | 0.30 | 0.30 | 90 | 1010.3 |
| 20260507031529 | 45 | 331 | 0.0 | 1.0 | 0.00 | 0.30 | 0.30 | 89 | 1010.4 |
| 20260507030031 | 45 | 331 | 0.0 | 2.0 | 0.00 | 0.30 | 0.30 | 89 | 1010.3 |
| 20260507024528 | 45 | 331 | 0.0 | 3.0 | 0.00 | 0.30 | 0.30 | 89 | 1010.8 |
| 20260507023029 | 45 | 331 | 0.0 | 2.0 | 0.00 | 0.30 | 0.30 | 89 | 1010.8 |
| 20260507021525 | 45 | 331 | 0.0 | 2.0 | 0.00 | 0.30 | 0.30 | 89 | 1011.0 |
| 20260507020024 | 45 | 331 | 1.0 | 2.0 | 0.00 | 0.30 | 0.30 | 88 | 1011.1 |
| 20260507014525 | 46 | 331 | 0.0 | 2.0 | 0.00 | 0.30 | 0.30 | 88 | 1011.0 |
| 20260507013033 | 46 | 331 | 1.0 | 3.0 | 0.00 | 0.30 | 0.30 | 88 | 1010.7 |
| 20260507011534 | 46 | 331 | 1.0 | 3.0 | 0.00 | 0.30 | 0.30 | 88 | 1010.9 |
| 20260507010020 | 46 | 331 | 0.0 | 2.0 | 0.00 | 0.30 | 0.30 | 87 | 1010.6 |
| 20260507004519 | 46 | 331 | 0.0 | 2.0 | 0.00 | 0.30 | 0.30 | 87 | 1010.4 |
| 20260507003019 | 46 | 331 | 0.0 | 2.0 | 0.00 | 0.30 | 0.30 | 87 | 1010.2 |
| 20260507001515 | 46 | 331 | 0.0 | 2.0 | 0.00 | 0.30 | 0.30 | 87 | 1010.2 |
| 20260507000014 | 46 | 331 | 0.0 | 2.0 | 0.00 | 0.30 | 0.30 | 87 | 1009.7 |
| 20260506234513 | 46 | 331 | 0.0 | 2.0 | 0.00 | 0.30 | 0.30 | 87 | 1009.7 |
| 20260506233013 | 46 | 331 | 1.0 | 3.0 | 0.00 | 0.30 | 0.30 | 87 | 1009.7 |
| 20260506231511 | 46 | 331 | 0.0 | 2.0 | 0.00 | 0.30 | 0.30 | 87 | 1009.6 |
| 20260506230010 | 46 | 331 | 1.0 | 2.0 | 0.00 | 0.30 | 0.30 | 87 | 1009.5 |
| 20260506224516 | 46 | 331 | 1.0 | 3.0 | 0.00 | 0.30 | 0.30 | 87 | 1009.4 |
| 20260506223008 | 46 | 330 | 1.0 | 8.0 | 0.00 | 0.30 | 0.30 | 87 | 1009.2 |
| 20260506221506 | 47 | 325 | 2.0 | 9.0 | 0.00 | 0.30 | 0.30 | 87 | 1009.0 |
| 20260506220006 | 47 | 315 | 3.0 | 10.0 | 0.00 | 0.30 | 0.30 | 88 | 1008.8 |
| 20260506214505 | 47 | 324 | 2.0 | 9.0 | 0.00 | 0.30 | 0.30 | 89 | 1008.9 |
| 20260506213002 | 47 | 288 | 2.0 | 12.0 | 0.00 | 0.30 | 0.30 | 90 | 1008.7 |
| 20260506211559 | 47 | 288 | 2.0 | 7.0 | 0.00 | 0.30 | 0.30 | 90 | 1008.4 |
| 20260506210117 | 47 | 315 | 2.0 | 5.0 | 0.00 | 0.30 | 0.30 | 91 | 1008.1 |
| 20260506204555 | 47 | 349 | 3.0 | 5.0 | 0.00 | 0.30 | 0.30 | 91 | 1007.7 |
| 20260506203139 | 47 | 310 | 1.0 | 5.0 | 0.00 | 0.30 | 0.30 | 91 | 1007.5 |
| 20260506201552 | 47 | 323 | 3.0 | 4.0 | 0.02 | 0.30 | 0.30 | 91 | 1007.0 |
| 20260506200052 | 47 | 348 | 2.0 | 5.0 | 0.02 | 0.30 | 0.30 | 91 | 1006.9 |
| 20260506194549 | 47 | 5 | 1.0 | 9.0 | 0.02 | 0.31 | 0.30 | 91 | 1007.0 |
| 20260506193045 | 48 | 304 | 2.0 | 5.0 | 0.03 | 0.31 | 0.30 | 91 | 1007.1 |
| 20260506191550 | 48 | 275 | 1.0 | 4.0 | 0.01 | 0.28 | 0.28 | 91 | 1006.7 |
| 20260506190049 | 48 | 275 | 1.0 | 3.0 | 0.01 | 0.28 | 0.28 | 91 | 1006.5 |
| 20260506184552 | 48 | 275 | 2.0 | 6.0 | 0.01 | 0.28 | 0.28 | 91 | 1006.3 |
| 20260506183041 | 49 | 279 | 1.0 | 6.0 | 0.00 | 0.28 | 0.27 | 91 | 1006.1 |
| 20260506181539 | 49 | 246 | 1.0 | 4.0 | 0.00 | 0.28 | 0.27 | 91 | 1005.9 |
| 20260506180038 | 50 | 228 | 1.0 | 4.0 | 0.00 | 0.28 | 0.27 | 91 | 1005.7 |
| 20260506174535 | 51 | 268 | 2.0 | 5.0 | 0.00 | 0.28 | 0.27 | 90 | 1005.2 |
| 20260506173039 | 52 | 222 | 1.0 | 9.0 | 0.00 | 0.28 | 0.27 | 90 | 1004.9 |
| 20260506171535 | 54 | 254 | 2.0 | 5.0 | 0.00 | 0.28 | 0.27 | 90 | 1004.6 |
| 20260506170030 | 56 | 185 | 2.0 | 6.0 | 0.01 | 0.28 | 0.27 | 91 | 1004.5 |
| 20260506164530 | 58 | 223 | 0.0 | 3.0 | 0.01 | 0.28 | 0.27 | 92 | 1004.3 |
| 20260506163047 | 57 | 200 | 2.0 | 8.0 | 0.01 | 0.28 | 0.27 | 92 | 1004.2 |
| 20260506161529 | 57 | 211 | 3.0 | 8.0 | 0.01 | 0.28 | 0.27 | 92 | 1004.2 |
| 20260506160028 | 57 | 211 | 4.0 | 10.0 | 0.01 | 0.27 | 0.26 | 92 | 1004.2 |
| 20260506154534 | 57 | 210 | 3.0 | 9.0 | 0.03 | 0.27 | 0.26 | 93 | 1004.3 |
| 20260506153028 | 57 | 245 | 3.0 | 9.0 | 0.04 | 0.27 | 0.26 | 93 | 1004.2 |
| 20260506151526 | 56 | 214 | 5.0 | 10.0 | 0.03 | 0.26 | 0.25 | 93 | 1004.2 |
| 20260506150022 | 56 | 202 | 2.0 | 6.0 | 0.03 | 0.25 | 0.24 | 93 | 1004.4 |
| 20260506144521 | 56 | 208 | 1.0 | 7.0 | 0.02 | 0.24 | 0.23 | 93 | 1004.2 |
| 20260506143019 | 56 | 163 | 1.0 | 2.0 | 0.02 | 0.23 | 0.22 | 93 | 1004.2 |